When you browse on this site, cookies collect data to enhance your experience and personalize the content and advertising you see.
Visit our Privacy Policy to learn more. By continuing to use the site, you agree to this use of cookies and data.
  • In Switzerland
  • List of Countries
  • For 7 days
  • Water Temperature
  • Weather Map
  • Weather Widgets
  • user-avatar
    Login

    Hourly Weather Salta

    Today, 25 May, Monday

    Time Temperature Precipitation Wind Pressure Humidity
    00:00 +13°C° 0 mm 1 mps 653 mmHg 42%
    01:00 +14°C° 0 mm 1 mps 653 mmHg 40%
    02:00 +14°C° 0 mm 2 mps 653 mmHg 36%
    03:00 +14°C° 0 mm 2 mps 653 mmHg 34%
    04:00 +15°C° 0 mm 2 mps 653 mmHg 31%
    05:00 +15°C° 0 mm 2 mps 653 mmHg 28%
    06:00 +16°C° 0 mm 2 mps 654 mmHg 28%
    07:00 +17°C° 0 mm 2 mps 655 mmHg 27%
    08:00 +19°C° 0 mm 1 mps 656 mmHg 29%
    09:00 +22°C° 0 mm 1 mps 657 mmHg 26%
    10:00 +24°C° 0 mm 2 mps 659 mmHg 22%
    11:00 +27°C° 0 mm 2 mps 660 mmHg 19%
    12:00 +27°C° 0 mm 2 mps 659 mmHg 21%
    13:00 +26°C° 0 mm 3 mps 658 mmHg 23%
    14:00 +26°C° 0 mm 3 mps 658 mmHg 24%
    15:00 +24°C° 0 mm 3 mps 657 mmHg 30%
    16:00 +23°C° 0 mm 2 mps 657 mmHg 36%
    17:00 +20°C° 0 mm 2 mps 656 mmHg 41%
    18:00 +19°C° 0 mm 1 mps 656 mmHg 44%
    19:00 +15°C° 0 mm 1 mps 656 mmHg 48%
    20:00 +13°C° 0 mm 1 mps 655 mmHg 51%
    21:00 +13°C° 0 mm 1 mps 655 mmHg 51%
    22:00 +12°C° 0 mm 1 mps 655 mmHg 50%
    23:00 +12°C° 0 mm 1 mps 656 mmHg 49%

    Tomorrow, 26 May, Tuesday

    Time Temperature Precipitation Wind Pressure Humidity
    00:00 +12°C° 0 mm 1 mps 655 mmHg 50%
    01:00 +11°C° 0 mm 1 mps 655 mmHg 50%
    02:00 +11°C° 0 mm 1 mps 655 mmHg 51%
    03:00 +11°C° 0 mm 1 mps 655 mmHg 53%
    04:00 +11°C° 0 mm 1 mps 654 mmHg 54%
    05:00 +10°C° 0 mm 1 mps 654 mmHg 55%
    06:00 +11°C° 0 mm 1 mps 655 mmHg 54%
    07:00 +13°C° 0 mm 1 mps 655 mmHg 52%
    08:00 +13°C° 0 mm 0 mps 655 mmHg 51%
    09:00 +16°C° 0 mm 1 mps 656 mmHg 45%
    10:00 +20°C° 0 mm 1 mps 657 mmHg 40%
    11:00 +23°C° 0 mm 1 mps 657 mmHg 34%
    12:00 +24°C° 0 mm 1 mps 657 mmHg 33%
    13:00 +24°C° 0 mm 2 mps 656 mmHg 32%
    14:00 +25°C° 0 mm 2 mps 655 mmHg 31%
    15:00 +24°C° 0 mm 2 mps 655 mmHg 34%
    16:00 +23°C° 0 mm 1 mps 654 mmHg 38%
    17:00 +21°C° 0 mm 1 mps 654 mmHg 42%
    18:00 +19°C° 0 mm 1 mps 653 mmHg 44%
    19:00 +16°C° 0 mm 1 mps 653 mmHg 46%
    20:00 +13°C° 0 mm 0 mps 652 mmHg 48%
    21:00 +12°C° 0 mm 0 mps 652 mmHg 49%
    22:00 +12°C° 0 mm 0 mps 652 mmHg 49%
    23:00 +11°C° 0 mm 0 mps 652 mmHg 50%

    Day after tomorrow, 27 May, Wednesday

    Time Temperature Precipitation Wind Pressure Humidity
    00:00 +12°C° 0 mm 1 mps 652 mmHg 49%
    01:00 +12°C° 0 mm 1 mps 651 mmHg 49%
    02:00 +12°C° 0 mm 1 mps 651 mmHg 49%
    03:00 +12°C° 0 mm 1 mps 651 mmHg 48%
    04:00 +11°C° 0 mm 1 mps 651 mmHg 48%
    05:00 +11°C° 0 mm 1 mps 651 mmHg 47%
    06:00 +12°C° 0 mm 1 mps 651 mmHg 46%
    07:00 +13°C° 0 mm 1 mps 652 mmHg 45%
    08:00 +14°C° 0 mm 1 mps 652 mmHg 44%
    09:00 +18°C° 0 mm 1 mps 653 mmHg 40%
    10:00 +21°C° 0 mm 1 mps 654 mmHg 36%
    11:00 +23°C° 0 mm 1 mps 654 mmHg 32%
    12:00 +24°C° 0 mm 2 mps 654 mmHg 32%
    13:00 +25°C° 0 mm 2 mps 653 mmHg 32%
    14:00 +25°C° 0 mm 2 mps 652 mmHg 32%
    15:00 +24°C° 0 mm 2 mps 652 mmHg 37%
    16:00 +23°C° 0 mm 1 mps 651 mmHg 42%
    17:00 +21°C° 0 mm 1 mps 650 mmHg 47%
    18:00 +19°C° 0 mm 1 mps 650 mmHg 52%
    19:00 +16°C° 0 mm 1 mps 649 mmHg 57%
    20:00 +13°C° 0 mm 0 mps 649 mmHg 62%
    21:00 +13°C° 0 mm 1 mps 649 mmHg 62%
    22:00 +13°C° 0 mm 1 mps 649 mmHg 62%
    23:00 +13°C° 0 mm 1 mps 649 mmHg 61%

    28 May, Thursday

    Time Temperature Precipitation Wind Pressure Humidity
    00:00 +13°C° 0 mm 1 mps 649 mmHg 62%
    01:00 +12°C° 0 mm 1 mps 648 mmHg 63%
    02:00 +12°C° 0 mm 1 mps 648 mmHg 63%
    03:00 +12°C° 0 mm 1 mps 648 mmHg 63%
    04:00 +12°C° 0 mm 1 mps 648 mmHg 62%
    05:00 +12°C° 0 mm 1 mps 647 mmHg 62%
    06:00 +13°C° 0 mm 1 mps 648 mmHg 59%
    07:00 +13°C° 0 mm 1 mps 648 mmHg 56%
    08:00 +14°C° 0 mm 1 mps 649 mmHg 53%
    09:00 +18°C° 0 mm 1 mps 650 mmHg 47%
    10:00 +21°C° 0 mm 1 mps 650 mmHg 41%
    11:00 +24°C° 0 mm 1 mps 651 mmHg 36%
    12:00 +25°C° 0 mm 1 mps 650 mmHg 34%
    13:00 +26°C° 0 mm 2 mps 650 mmHg 33%
    14:00 +26°C° 0 mm 2 mps 649 mmHg 32%
    15:00 +25°C° 0 mm 2 mps 649 mmHg 36%
    16:00 +24°C° 0 mm 1 mps 648 mmHg 41%
    17:00 +22°C° 0 mm 1 mps 648 mmHg 45%
    18:00 +20°C° 0 mm 1 mps 648 mmHg 49%
    19:00 +18°C° 0 mm 1 mps 647 mmHg 53%
    20:00 +14°C° 0 mm 1 mps 647 mmHg 57%
    21:00 +14°C° 0 mm 1 mps 647 mmHg 58%
    22:00 +14°C° 0 mm 1 mps 647 mmHg 58%
    23:00 +14°C° 0 mm 1 mps 647 mmHg 59%

    29 May, Friday

    Time Temperature Precipitation Wind Pressure Humidity
    00:00 +14°C° 0 mm 2 mps 647 mmHg 57%
    01:00 +14°C° 0 mm 2 mps 647 mmHg 56%
    02:00 +14°C° 0 mm 2 mps 646 mmHg 55%
    03:00 +14°C° 0 mm 2 mps 647 mmHg 53%
    04:00 +14°C° 0 mm 2 mps 647 mmHg 52%
    05:00 +14°C° 0 mm 2 mps 647 mmHg 50%
    06:00 +14°C° 0 mm 2 mps 647 mmHg 48%
    07:00 +15°C° 0 mm 2 mps 648 mmHg 45%
    08:00 +16°C° 0 mm 2 mps 649 mmHg 43%
    09:00 +19°C° 0 mm 1 mps 649 mmHg 39%
    10:00 +22°C° 0 mm 1 mps 650 mmHg 34%
    11:00 +25°C° 0 mm 1 mps 651 mmHg 30%
    12:00 +25°C° 0 mm 2 mps 650 mmHg 30%
    13:00 +26°C° 0 mm 2 mps 650 mmHg 30%
    14:00 +26°C° 0 mm 2 mps 649 mmHg 30%
    15:00 +24°C° 0 mm 3 mps 649 mmHg 38%
    16:00 +21°C° 0 mm 3 mps 648 mmHg 47%
    17:00 +19°C° 0 mm 3 mps 648 mmHg 55%
    18:00 +17°C° 0 mm 3 mps 648 mmHg 63%
    19:00 +15°C° 0 mm 2 mps 649 mmHg 71%
    20:00 +13°C° 0 mm 2 mps 649 mmHg 80%
    21:00 +13°C° 0 mm 2 mps 649 mmHg 81%
    22:00 +12°C° 0 mm 1 mps 649 mmHg 82%
    23:00 +12°C° 0 mm 1 mps 650 mmHg 83%

    30 May, Saturday

    Time Temperature Precipitation Wind Pressure Humidity
    00:00 +12°C° 0 mm 1 mps 650 mmHg 82%
    01:00 +12°C° 0 mm 1 mps 650 mmHg 80%
    02:00 +12°C° 0 mm 1 mps 650 mmHg 79%
    03:00 +12°C° 0 mm 1 mps 650 mmHg 79%
    04:00 +12°C° 0 mm 1 mps 650 mmHg 80%
    05:00 +12°C° 0 mm 1 mps 650 mmHg 81%
    06:00 +11°C° 0 mm 1 mps 650 mmHg 81%
    07:00 +11°C° 0 mm 1 mps 650 mmHg 81%
    08:00 +11°C° 0 mm 1 mps 651 mmHg 81%
    09:00 +12°C° 0 mm 2 mps 651 mmHg 75%
    10:00 +13°C° 0 mm 2 mps 651 mmHg 69%
    11:00 +14°C° 0 mm 2 mps 651 mmHg 62%
    12:00 +15°C° 0 mm 2 mps 651 mmHg 58%
    13:00 +16°C° 0 mm 2 mps 650 mmHg 54%
    14:00 +17°C° 0 mm 2 mps 650 mmHg 50%
    15:00 +16°C° 0 mm 2 mps 650 mmHg 52%
    16:00 +15°C° 0 mm 2 mps 650 mmHg 54%
    17:00 +13°C° 0 mm 3 mps 650 mmHg 56%
    18:00 +12°C° 0 mm 2 mps 650 mmHg 58%
    19:00 +9°C° 0 mm 2 mps 650 mmHg 60%
    20:00 +8°C° 0 mm 1 mps 650 mmHg 61%
    21:00 +8°C° 0 mm 1 mps 650 mmHg 60%
    22:00 +8°C° 0 mm 1 mps 651 mmHg 59%
    23:00 +7°C° 0 mm 1 mps 651 mmHg 58%
    Show more